User: anonymous   Login
Location: La Pernelle
(49.6188°N, 1.2999°W)
Time: 11:54:36
(UTC+00:00)
Language:

Meteor 2-5 Rocket - Orbit

View from above orbital plane
View from above orbital plane
View from above satellite
View from above satellite

Ground track
Ground track

The orbit data is extracted from the following two-line orbital elements,

1 11608U 79095B   21261.13944838  .00000180  00000-0  10005-3 0  9996
2 11608  81.2139 142.9623 0054961 116.7436 243.9372 14.06178760148465
Epoch (UTC): 18 September 2021 03:20:48
Eccentricity: 0.0054961
inclination: 81.2139°
perigee height: 832 km
apogee height: 912 km
right ascension of ascending node: 142.9623°
argument of perigee: 116.7436°
revolutions per day: 14.06178760
mean anomaly at epoch: 243.9372°
orbit number at epoch: 14846

The dashed part of the orbit path shows where the satellite is in the earth's shadow,  

DLR